TimeCST,TemperatureF,Dew PointF,Humidity,Sea Level PressureIn,VisibilityMPH,Wind Direction,Wind SpeedMPH,Gust SpeedMPH,PrecipitationIn,Events,Conditions,WindDirDegrees,DateUTC
12:14 AM,14.0,8.6,79,29.77,10.0,North,8.1,-,N/A,,Clear,350,2013-02-14 06:14:00
12:35 AM,12.2,6.8,79,29.78,10.0,North,6.9,-,N/A,,Clear,350,2013-02-14 06:35:00
12:54 AM,12.2,6.8,79,29.79,10.0,North,5.8,-,N/A,,Clear,350,2013-02-14 06:54:00
1:14 AM,8.6,3.2,79,29.79,10.0,North,3.5,-,N/A,,Clear,360,2013-02-14 07:14:00
1:34 AM,10.4,5.0,79,29.80,10.0,North,4.6,-,N/A,,Clear,360,2013-02-14 07:34:00
1:55 AM,8.6,3.2,79,29.81,10.0,North,6.9,-,N/A,,Clear,360,2013-02-14 07:55:00
2:14 AM,6.8,1.4,79,29.82,10.0,North,5.8,-,N/A,,Clear,360,2013-02-14 08:14:00
2:34 AM,8.6,3.2,79,29.82,10.0,North,6.9,-,N/A,,Clear,360,2013-02-14 08:34:00
2:55 AM,6.8,1.4,79,29.83,10.0,North,9.2,-,N/A,,Clear,360,2013-02-14 08:55:00
3:14 AM,5.0,-0.4,78,29.84,10.0,North,6.9,-,N/A,,Clear,360,2013-02-14 09:14:00
3:34 AM,6.8,1.4,79,29.85,10.0,North,4.6,-,N/A,,Clear,350,2013-02-14 09:34:00
3:54 AM,8.6,3.2,79,29.86,10.0,NNW,4.6,-,N/A,,Clear,330,2013-02-14 09:54:00
4:14 AM,6.8,3.2,85,29.86,10.0,NNW,5.8,-,N/A,,Clear,330,2013-02-14 10:14:00
4:34 AM,6.8,1.4,79,29.88,10.0,NNW,8.1,-,N/A,,Clear,340,2013-02-14 10:34:00
4:54 AM,3.2,-0.4,85,29.89,10.0,North,6.9,-,N/A,,Scattered Clouds,350,2013-02-14 10:54:00
5:14 AM,5.0,-0.4,78,29.90,10.0,North,4.6,-,N/A,,Clear,350,2013-02-14 11:14:00
5:34 AM,6.8,1.4,79,29.91,10.0,NW,3.5,-,N/A,,Clear,320,2013-02-14 11:34:00
5:54 AM,6.8,1.4,79,29.92,10.0,North,3.5,-,N/A,,Scattered Clouds,350,2013-02-14 11:54:00
6:14 AM,5.0,-0.4,78,29.93,10.0,NNW,3.5,-,N/A,,Clear,340,2013-02-14 12:14:00
6:34 AM,3.2,-2.2,78,29.94,10.0,North,8.1,-,N/A,,Clear,10,2013-02-14 12:34:00
6:54 AM,-0.4,-5.8,78,-9999,10.0,NNE,9.2,-,N/A,,Clear,20,2013-02-14 12:54:00
7:14 AM,-0.4,-5.8,78,29.96,10.0,North,8.1,-,N/A,,Clear,10,2013-02-14 13:14:00
7:34 AM,-0.4,-5.8,78,29.98,10.0,North,8.1,-,N/A,,Clear,360,2013-02-14 13:34:00
7:54 AM,1.4,-4.0,78,29.99,10.0,North,10.4,-,N/A,,Clear,360,2013-02-14 13:54:00
8:14 AM,1.4,-4.0,78,30.00,10.0,North,9.2,-,N/A,,Clear,360,2013-02-14 14:14:00
8:34 AM,3.2,-2.2,78,30.02,10.0,North,8.1,-,N/A,,Clear,10,2013-02-14 14:34:00
8:54 AM,3.2,-2.2,78,30.02,10.0,North,6.9,-,N/A,,Clear,10,2013-02-14 14:54:00
9:14 AM,3.2,-2.2,78,30.03,10.0,North,6.9,-,N/A,,Clear,10,2013-02-14 15:14:00
9:34 AM,3.2,-2.2,78,30.04,10.0,North,5.8,-,N/A,,Clear,360,2013-02-14 15:34:00
9:54 AM,5.0,-0.4,78,30.05,10.0,North,4.6,-,N/A,,Clear,350,2013-02-14 15:54:00
10:14 AM,6.8,1.4,79,30.05,10.0,North,5.8,-,N/A,,Clear,360,2013-02-14 16:14:00
10:34 AM,6.8,1.4,79,30.06,10.0,Calm,Calm,-,N/A,,Clear,0,2013-02-14 16:34:00
10:54 AM,8.6,3.2,79,30.06,10.0,NW,3.5,-,N/A,,Clear,310,2013-02-14 16:54:00
11:14 AM,10.4,3.2,73,30.06,10.0,Calm,Calm,-,N/A,,Clear,0,2013-02-14 17:14:00
11:34 AM,12.2,3.2,67,30.07,10.0,West,8.1,-,N/A,,Clear,270,2013-02-14 17:34:00
11:54 AM,12.2,3.2,67,30.07,10.0,West,8.1,-,N/A,,Clear,270,2013-02-14 17:54:00
12:14 PM,12.2,5.0,73,30.07,10.0,West,8.1,-,N/A,,Clear,270,2013-02-14 18:14:00
12:34 PM,14.0,5.0,67,30.08,10.0,West,11.5,-,N/A,,Clear,270,2013-02-14 18:34:00
12:54 PM,14.0,6.8,73,30.07,10.0,West,13.8,-,N/A,,Clear,270,2013-02-14 18:54:00
1:14 PM,14.0,6.8,73,30.08,10.0,West,15.0,20.7,N/A,,Clear,270,2013-02-14 19:14:00
1:34 PM,14.0,5.0,67,30.08,10.0,West,17.3,20.7,N/A,,Clear,270,2013-02-14 19:34:00
1:54 PM,14.0,5.0,67,30.08,10.0,West,13.8,-,N/A,,Clear,270,2013-02-14 19:54:00
2:14 PM,14.0,6.8,73,30.08,10.0,West,12.7,-,N/A,,Clear,270,2013-02-14 20:14:00
2:34 PM,14.0,6.8,73,30.09,10.0,West,12.7,-,N/A,,Clear,270,2013-02-14 20:34:00
2:54 PM,14.0,5.0,67,30.09,10.0,West,15.0,21.9,N/A,,Clear,280,2013-02-14 20:54:00
3:14 PM,14.0,6.8,73,30.10,10.0,West,15.0,19.6,N/A,,Clear,280,2013-02-14 21:14:00
3:34 PM,14.0,5.0,67,30.11,10.0,West,13.8,18.4,N/A,,Clear,280,2013-02-14 21:34:00
3:54 PM,14.0,5.0,67,30.11,10.0,West,13.8,18.4,N/A,,Clear,270,2013-02-14 21:54:00
4:14 PM,12.2,5.0,73,30.12,10.0,West,11.5,17.3,N/A,,Clear,280,2013-02-14 22:14:00
4:34 PM,12.2,3.2,67,30.12,10.0,West,12.7,-,N/A,,Clear,280,2013-02-14 22:34:00
4:54 PM,12.2,3.2,67,30.12,10.0,West,13.8,17.3,N/A,,Scattered Clouds,280,2013-02-14 22:54:00
5:14 PM,12.2,3.2,67,30.13,10.0,West,10.4,17.3,N/A,,Mostly Cloudy,280,2013-02-14 23:14:00
5:34 PM,10.4,3.2,73,30.14,10.0,West,10.4,16.1,N/A,,Scattered Clouds,280,2013-02-14 23:34:00
5:54 PM,10.4,3.2,73,30.14,10.0,WNW,10.4,-,N/A,,Scattered Clouds,290,2013-02-14 23:54:00
6:14 PM,10.4,3.2,73,30.15,10.0,West,9.2,-,N/A,,Scattered Clouds,280,2013-02-15 00:14:00
6:34 PM,10.4,1.4,67,30.16,10.0,West,9.2,-,N/A,,Mostly Cloudy,280,2013-02-15 00:34:00
6:54 PM,8.6,1.4,73,30.17,10.0,WNW,9.2,-,N/A,,Mostly Cloudy,290,2013-02-15 00:54:00
7:15 PM,8.6,3.2,79,30.17,10.0,WNW,8.1,-,N/A,,Overcast,290,2013-02-15 01:15:00
7:34 PM,8.6,1.4,73,30.17,10.0,WNW,8.1,-,N/A,,Scattered Clouds,290,2013-02-15 01:34:00
7:54 PM,8.6,1.4,73,30.17,10.0,WNW,8.1,-,N/A,,Clear,290,2013-02-15 01:54:00
8:15 PM,6.8,-0.4,72,30.18,10.0,WNW,8.1,-,N/A,,Clear,290,2013-02-15 02:15:00
8:34 PM,6.8,-0.4,72,30.18,10.0,West,8.1,-,N/A,,Clear,280,2013-02-15 02:34:00
8:54 PM,5.0,-0.4,78,30.18,10.0,WNW,6.9,-,N/A,,Clear,290,2013-02-15 02:54:00
9:15 PM,3.2,-2.2,78,30.18,10.0,WNW,5.8,-,N/A,,Clear,290,2013-02-15 03:15:00
9:34 PM,3.2,-2.2,78,30.19,10.0,WNW,5.8,-,N/A,,Clear,290,2013-02-15 03:34:00
9:54 PM,3.2,-2.2,78,30.19,10.0,West,6.9,-,N/A,,Clear,280,2013-02-15 03:54:00
10:15 PM,3.2,-2.2,78,30.19,10.0,West,6.9,-,N/A,,Clear,280,2013-02-15 04:15:00
10:34 PM,1.4,-2.2,85,30.19,10.0,West,6.9,-,N/A,,Clear,280,2013-02-15 04:34:00
10:54 PM,1.4,-2.2,85,30.19,10.0,West,6.9,-,N/A,,Clear,280,2013-02-15 04:54:00
11:15 PM,1.4,-2.2,85,30.20,7.0,West,6.9,-,N/A,,Mostly Cloudy,280,2013-02-15 05:15:00
11:34 PM,1.4,-2.2,85,30.20,7.0,WNW,5.8,-,N/A,,Overcast,290,2013-02-15 05:34:00
11:54 PM,1.4,-2.2,85,30.21,7.0,WNW,4.6,-,N/A,,Overcast,300,2013-02-15 05:54:00